Location: 22
(39.7117°N, 89.5929°W)
Time: 10:12:16
(UTC-05:00)

Transit 2A - Pass Details

Date: 07 August 2024
Orbit: 590 x 961 km, 66.7° (Epoch: 13 September)

Event Time Altitude Azimuth Distance (km) Brightness Sun altitude
Rises 05:22:11 0° 225° (SW) 3,203 - -8.0°
Exits shadow 05:24:16 - 230° (SW) 2,438 8.0 -7.7°
Reaches altitude 10° 05:24:33 10° 231° (SW) 2,339 7.9 -7.6°
Maximum altitude 05:29:46 48° 305° (NW) 1,100 6.7 -6.7°
Drops below altitude 10° 05:35:33 10° 19° (NNE) 2,584 9.5 -5.7°
Sets 05:38:17 0° 25° (NNE) 3,572 10.4 -5.3°
